FW2254 Weather Reports


Display with metric or nautical units.
time (UTC)temp
F
wind
direction
speed
MPH
gust
MPH
rain 1hr
in
rain 24hr
in
rain mn
in
humidity
%
barometer
mb
20260902044510 84 15 0.0 1.0 0.00 0.00 0.00 73 1012.6
20260902043002 84 15 0.0 0.0 0.00 0.00 0.00 73 1012.5
20260902041559 85 15 0.0 1.0 0.00 0.00 0.00 72 1012.3
20260902040056 85 15 0.0 2.0 0.00 0.00 0.00 71 1012.2
20260902034556 86 15 0.0 2.0 0.00 0.00 0.00 70 1012.4
20260902033055 86 15 0.0 3.0 0.00 0.00 0.00 70 1012.3
20260902031555 87 15 0.0 1.0 0.00 0.00 0.00 69 1012.3
20260902030052 87 15 0.0 2.0 0.00 0.00 0.00 68 1012.1
20260902024552 88 15 0.0 1.0 0.00 0.00 0.00 68 1011.8
20260902023100 88 15 0.0 3.0 0.00 0.00 0.00 67 1011.6
20260902021553 89 15 0.0 1.0 0.00 0.00 0.00 65 1011.3
20260902020047 89 15 1.0 2.0 0.00 0.00 0.00 63 1011.3
20260902014547 89 15 1.0 5.0 0.00 0.00 0.00 59 1010.9
20260902013047 90 15 0.0 1.0 0.00 0.00 0.00 56 1010.6
20260902011603 91 15 0.0 1.0 0.00 0.00 0.00 54 1010.5
20260902010024 92 15 0.0 1.0 0.00 0.00 0.00 53 1010.5
20260902004520 93 15 0.0 2.0 0.00 0.00 0.00 51 1010.3
20260902003046 94 15 0.0 5.0 0.00 0.00 0.00 50 1010.1
20260902001545 94 15 0.0 3.0 0.00 0.00 0.00 49 1010.0
20260902000044 95 15 0.0 2.0 0.00 0.00 0.00 49 1010.0
20260901234547 95 15 0.0 3.0 0.00 0.00 0.00 49 1009.8
20260901233042 96 15 1.0 3.0 0.00 0.00 0.00 47 1010.0
20260901231551 96 15 0.0 3.0 0.00 0.00 0.00 48 1009.9
20260901230040 96 15 0.0 3.0 0.00 0.00 0.00 49 1009.8
20260901224539 97 15 1.0 4.0 0.00 0.00 0.00 47 1010.1
20260901223039 97 15 0.0 5.0 0.00 0.00 0.00 48 1010.0
20260901221603 97 14 1.0 5.0 0.00 0.00 0.00 49 1010.0
20260901220005 97 14 0.0 4.0 0.00 0.00 0.00 48 1010.2
20260901214503 98 14 1.0 5.0 0.00 0.00 0.00 49 1010.4
20260901213109 97 14 0.0 3.0 0.00 0.00 0.00 49 1010.5
20260901211600 98 14 1.0 4.0 0.00 0.00 0.00 50 1010.6
20260901210111 98 15 1.0 5.0 0.00 0.00 0.00 48 1010.8
20260901204610 99 15 1.0 3.0 0.00 0.00 0.00 47 1010.9
20260901203059 98 14 2.0 6.0 0.00 0.00 0.00 47 1011.0
20260901201556 99 14 0.0 3.0 0.00 0.00 0.00 46 1011.1
20260901200112 100 14 1.0 2.0 0.00 0.00 0.00 47 1011.3
20260901194556 100 14 1.0 8.0 0.00 0.00 0.00 47 1011.4
20260901193047 100 14 1.0 3.0 0.00 0.00 0.00 46 1011.5
20260901191612 98 14 0.0 3.0 0.00 0.00 0.00 49 1011.8
20260901190031 100 14 1.0 3.0 0.00 0.00 0.00 47 1012.0
20260901184528 99 14 1.0 3.0 0.00 0.00 0.00 49 1012.3
20260901183034 99 14 1.0 4.0 0.00 0.00 0.00 47 1012.6
20260901181523 98 14 0.0 3.0 0.00 0.00 0.00 52 1012.7
20260901180016 97 14 1.0 4.0 0.00 0.00 0.00 53 1013.1
20260901174514 94 14 0.0 3.0 0.00 0.00 0.00 57 1013.4
20260901173012 97 14 0.0 3.0 0.00 0.00 0.00 55 1013.7
20260901171508 92 14 0.0 3.0 0.00 0.00 0.00 60 1013.9
20260901170008 94 14 1.0 3.0 0.00 0.00 0.00 58 1014.1
20260901164505 93 14 1.0 2.0 0.00 0.00 0.00 60 1014.3
20260901163004 93 14 0.0 4.0 0.00 0.00 0.00 58 1014.3
20260901161536 92 14 1.0 3.0 0.00 0.00 0.00 60 1014.5
20260901160032 91 14 1.0 3.0 0.00 0.00 0.00 63 1014.6
20260901154524 90 14 1.0 2.0 0.00 0.00 0.00 65 1014.6
20260901153026 90 14 1.0 2.0 0.00 0.00 0.00 65 1014.6
20260901151534 89 14 0.0 2.0 0.00 0.00 0.00 69 1014.5
20260901150033 88 14 0.0 4.0 0.00 0.00 0.00 70 1014.7
20260901144512 87 14 0.0 2.0 0.00 0.00 0.00 73 1014.8
20260901143010 86 14 0.0 2.0 0.00 0.00 0.00 75 1014.9
20260901141506 84 14 0.0 2.0 0.00 0.00 0.00 77 1015.0
20260901140005 83 14 0.0 0.0 0.00 0.00 0.00 80 1015.0
20260901134502 81 14 0.0 0.0 0.00 0.00 0.00 81 1015.0
20260901133002 80 14 0.0 0.0 0.00 0.00 0.00 83 1015.1
20260901131601 78 14 0.0 0.0 0.00 0.00 0.00 85 1015.0
20260901130058 77 14 0.0 0.0 0.00 0.00 0.00 88 1014.8
20260901124557 76 14 0.0 0.0 0.00 0.00 0.00 90 1014.7
20260901123053 75 14 0.0 0.0 0.00 0.00 0.00 89 1014.7
20260901121554 75 14 0.0 0.0 0.00 0.00 0.00 89 1014.4
20260901120048 76 14 0.0 0.0 0.00 0.00 0.00 89 1014.2
20260901114544 76 14 0.0 0.0 0.00 0.00 0.00 87 1013.9
20260901113043 76 14 0.0 0.0 0.00 0.00 0.00 87 1013.7
20260901111540 76 14 0.0 0.0 0.00 0.00 0.00 86 1013.9
20260901110039 76 14 0.0 0.0 0.00 0.00 0.00 85 1013.8
20260901104536 77 14 0.0 0.0 0.00 0.00 0.00 84 1013.6
20260901103035 77 14 0.0 0.0 0.00 0.00 0.00 84 1013.5
20260901101553 77 14 0.0 0.0 0.00 0.00 0.00 83 1013.6
20260901100039 77 14 0.0 0.0 0.00 0.00 0.00 83 1013.4
20260901094538 78 14 0.0 0.0 0.00 0.00 0.00 82 1013.4
20260901093026 78 14 0.0 0.0 0.00 0.00 0.00 82 1013.5
20260901091544 78 14 0.0 0.0 0.00 0.00 0.00 81 1013.4
20260901090024 78 14 0.0 0.0 0.00 0.00 0.00 80 1013.5
20260901084534 78 14 0.0 0.0 0.00 0.00 0.00 79 1013.5
20260901083018 79 14 0.0 0.0 0.00 0.00 0.00 78 1013.6
20260901081518 79 14 0.0 0.0 0.00 0.00 0.00 77 1013.7
20260901080039 79 14 0.0 0.0 0.00 0.00 0.00 77 1013.6
20260901074545 80 14 0.0 0.0 0.00 0.00 0.00 76 1013.6
20260901073043 80 14 0.0 0.0 0.00 0.00 0.00 75 1013.5
20260901071541 81 14 0.0 0.0 0.00 0.00 0.00 74 1013.6
20260901070037 81 14 0.0 0.0 0.00 0.00 0.00 73 1013.5
20260901064534 82 14 0.0 0.0 0.00 0.00 0.00 73 1013.4
20260901063050 82 14 0.0 2.0 0.00 0.00 0.00 72 1013.3
20260901061528 82 14 0.0 0.0 0.00 0.00 0.00 71 1013.1
20260901060025 83 14 0.0 1.0 0.00 0.00 0.00 71 1013.0
20260901054524 83 14 0.0 3.0 0.00 0.00 0.00 71 1012.9
20260901053030 83 14 0.0 1.0 0.00 0.00 0.00 70 1012.6
20260901051519 84 14 0.0 1.0 0.00 0.00 0.00 69 1012.4
20260901050014 84 14 0.0 1.0 0.00 0.00 0.00 69 1012.5